Theta_e
300 300 299 299 299 299 300 300 300 300 300 300 300 300 300 299 302 305 301 299 299 299 298 303 302 302 302 302 303 304 303 304 305 305 305 306 305 306 306 306 306 305 306 306 306
300 300 299 299 299 299 300 300 300 300 300 300 300 300 299 300 304 304 299 299 299 302 303 303 302 302 302 303 303 304 303 304 305 304 303 304 303 303 304 304 305 305 304 304 304
299 299 299 299 299 299 300 300 300 300 300 300 300 300 299 301 306 303 299 299 298 298 302 302 302 302 303 303 303 304 303 304 304 304 303 303 303 303 303 302 303 303 303 303 303
299 299 299 299 299 299 300 300 300 300 300 300 300 300 300 302 306 301 299 298 298 301 301 301 302 302 303 304 303 302 303 303 303 303 302 302 302 302 302 302 302 302 302 302 302
299 299 299 299 299 299 300 300 300 300 300 300 300 300 301 304 303 300 300 298 300 300 300 301 301 301 302 303 302 302 302 303 302 302 302 302 302 301 301 302 302 302 302 302 302
299 299 299 299 299 300 300 300 300 300 300 301 300 299 303 304 300 301 299 299 300 299 299 299 300 301 301 301 302 302 302 302 302 302 302 302 302 302 302 303 303 303 303 303 303
300 299 300 300 299 300 300 300 300 301 300 301 300 301 302 300 300 299 299 299 299 299 299 300 300 300 301 302 302 302 302 302 302 303 303 303 302 302 303 303 303 303 303 303 303
300 300 300 300 299 300 300 300 300 300 300 300 299 302 303 299 299 299 299 299 299 300 299 300 301 301 301 301 302 303 302 303 304 303 303 303 302 303 303 303 303 303 303 303 303
300 300 300 300 300 300 300 300 300 301 299 300 301 303 302 299 299 299 299 299 299 300 300 300 301 302 302 303 303 304 303 301 301 302 303 303 304 303 303 303 303 303 303 303 303
300 300 300 300 300 300 300 300 301 301 300 301 301 304 300 299 298 299 299 299 300 300 302 302 301 303 304 301 301 302 302 301 301 301 302 302 303 303 303 303 301 300 300 299 300
300 300 300 300 300 300 299 302 304 307 300 300 299 301 300 298 299 299 299 300 301 302 301 301 303 301 300 301 301 301 301 300 299 300 300 303 303 302 302 301 298 296 296 296 297
300 300 300 300 300 300 299 299 300 299 303 298 298 300 298 298 299 299 299 300 301 301 301 303 301 300 300 301 301 301 300 299 299 299 298 298 298 298 301 296 294 294 293 293 294
300 300 300 300 300 300 299 297 299 300 306 300 298 299 298 299 299 299 299 299 301 301 300 301 300 300 300 300 300 299 298 300 297 297 297 297 299 300 296 293 292 291 290 290 291
300 300 300 299 301 299 299 297 299 300 312 305 301 299 299 300 300 299 299 298 300 300 299 301 300 299 299 299 299 297 297 296 297 298 298 298 301 295 293 292 291 289 288 287 289
300 300 300 300 299 300 296 298 299 303 319 302 300 299 299 299 299 300 300 299 299 300 300 302 300 299 298 298 298 296 296 296 297 298 298 300 301 294 291 290 289 288 286 286 291
300 300 300 300 299 300 297 298 302 313 310 302 300 300 300 300 300 300 301 299 299 300 301 301 300 299 298 298 297 295 295 299 301 301 301 303 302 292 290 288 287 286 285 286 291
300 300 300 300 299 298 297 303 311 307 305 300 298 299 300 299 300 301 301 299 298 297 299 300 300 299 298 297 296 294 294 297 300 303 303 301 296 291 288 287 286 285 284 286 289
300 300 300 299 299 297 300 308 308 302 302 299 299 299 300 299 300 300 301 300 298 297 298 298 297 298 298 296 293 295 292 291 296 300 300 299 295 293 288 286 284 284 285 285 286
300 300 300 299 298 297 305 307 307 304 298 298 302 303 304 301 300 301 300 299 298 297 295 298 297 299 297 297 293 292 292 293 295 297 298 298 294 295 288 285 284 283 283 284 285
300 300 299 299 297 299 305 306 299 297 297 299 302 299 300 299 300 301 301 299 298 298 297 297 296 300 298 295 293 293 293 293 293 290 296 299 291 287 285 282 282 282 282 283 283
300 299 301 297 297 303 307 303 296 295 297 299 299 300 300 298 298 300 301 300 298 298 298 299 296 297 297 291 290 291 290 293 293 292 294 295 290 285 283 282 281 281 281 282 282
300 302 299 296 303 299 302 297 296 296 296 298 298 298 298 297 297 300 300 299 297 298 297 298 295 299 294 293 294 292 289 289 289 290 289 290 290 284 281 281 280 280 280 281 281
299 300 297 296 305 302 295 296 297 296 297 298 298 298 295 295 295 297 299 298 297 297 296 295 299 297 296 296 295 291 291 290 290 292 292 293 293 285 282 280 279 279 279 279 280
299 303 297 296 300 301 300 299 296 296 296 297 298 297 294 291 294 293 298 298 297 297 296 296 298 293 294 293 294 290 289 290 290 289 286 289 287 284 281 279 278 278 278 279 280
299 300 298 304 300 301 302 298 298 296 296 296 297 296 296 293 291 290 297 298 297 297 297 295 296 291 291 291 294 292 286 287 287 287 289 286 287 284 280 278 277 277 277 278 279
300 297 294 295 298 300 300 298 299 297 296 296 294 298 294 293 296 293 296 298 298 296 297 296 297 291 291 291 288 292 290 289 287 284 288 288 286 283 280 278 277 277 277 277 278
300 297 302 297 299 302 303 299 298 297 296 296 296 296 292 294 296 296 296 296 295 293 296 294 292 291 298 292 293 294 290 284 284 283 284 284 285 283 280 277 277 277 277 277 278
Wind_Speed
11 13 15 16 17 20 21 23 23 22 25 25 19 16 12 8 8 10 6 12 21 25 23 17 15 12 15 11 9 8 4 10 15 14 14 15 12 3 4 7 10 17 22 24 28
12 13 15 17 19 21 22 24 23 23 26 20 17 12 10 6 10 5 10 20 25 20 17 16 17 16 12 12 6 7 6 8 7 9 8 11 14 18 14 12 16 20 24 23 22
13 14 16 18 19 21 23 24 23 25 23 17 12 10 6 6 4 3 16 25 22 18 13 13 13 13 9 12 9 7 13 15 17 22 22 17 13 18 16 15 19 18 22 22 20
13 15 17 18 20 23 24 24 24 25 17 13 10 6 6 4 2 8 23 26 17 12 10 10 10 12 9 10 14 11 16 18 18 21 21 13 22 16 22 22 25 27 27 28 29
14 15 17 19 21 23 25 23 25 19 14 10 6 4 5 4 5 19 23 18 11 9 10 11 11 11 8 11 19 16 16 19 18 21 21 21 17 18 26 28 28 29 30 31 29
15 16 18 19 21 24 25 24 23 15 9 9 6 4 4 2 12 16 18 17 14 12 15 15 12 13 14 13 11 16 19 19 21 22 23 19 20 21 23 30 30 28 28 27 28
15 16 17 19 22 24 23 24 16 12 6 10 4 7 5 3 10 18 18 18 14 17 21 14 10 9 8 10 12 14 16 16 18 22 10 16 12 14 28 28 28 20 19 20 21
15 16 18 20 22 24 21 22 13 7 4 7 3 6 2 10 17 15 21 26 17 7 5 5 5 9 12 11 15 16 13 11 9 2 9 4 13 16 19 15 18 19 22 26 25
15 17 19 20 22 23 20 18 10 7 5 5 12 3 3 9 24 18 25 26 16 5 6 2 3 6 6 6 8 4 11 17 15 15 15 7 13 12 17 22 20 18 22 24 23
15 16 19 20 22 21 20 12 6 10 3 4 9 2 5 13 13 19 32 20 7 9 4 4 3 4 2 5 7 15 14 12 19 16 20 18 17 15 21 12 15 21 26 28 27
15 16 19 21 23 17 18 7 5 4 9 8 3 1 9 20 10 23 36 11 11 3 7 4 3 6 11 9 11 15 16 20 18 17 13 12 12 8 14 8 17 22 24 28 30
14 15 18 21 23 14 15 7 3 3 2 4 8 4 9 11 8 24 32 12 10 8 12 1 5 10 12 13 14 15 21 20 15 11 12 11 17 15 8 19 22 24 27 29 30
14 15 16 20 21 19 15 15 5 8 1 1 3 3 8 11 7 20 24 11 9 9 10 2 6 12 14 14 17 17 18 14 19 21 18 12 4 10 11 18 25 28 29 31 32
14 14 16 18 10 16 13 16 2 6 2 3 1 6 11 6 1 18 17 7 6 6 6 5 8 14 13 13 19 18 15 20 20 9 5 8 3 15 14 17 21 30 35 38 43
14 14 15 16 15 9 16 10 5 4 2 4 3 6 8 10 9 18 15 8 5 8 1 3 10 12 8 15 22 7 24 19 18 8 1 1 1 6 13 19 24 24 37 42 43
14 13 14 16 16 12 16 4 4 3 2 3 2 6 7 13 5 13 9 21 1 5 4 6 11 3 7 17 12 26 17 10 2 3 0 9 1 8 9 15 21 26 40 43 42
14 13 14 15 9 15 12 3 4 5 3 7 4 6 6 6 5 9 8 12 8 7 7 11 4 6 12 16 6 19 16 4 3 3 3 6 9 6 14 14 15 21 34 38 38
14 13 14 13 8 12 4 1 6 0 2 2 3 7 3 6 4 12 6 5 10 6 4 6 7 6 6 5 11 10 5 3 4 5 4 8 4 5 16 16 22 24 27 35 48
13 13 13 8 8 7 2 5 4 2 2 3 3 2 2 2 4 7 4 6 6 7 4 6 5 7 8 5 16 9 5 8 4 5 3 3 5 4 23 16 24 31 39 43 42
12 13 11 4 7 1 3 3 3 2 1 1 4 2 3 5 6 7 7 4 6 10 3 2 6 5 3 7 10 5 6 3 3 5 6 3 3 4 22 23 23 25 33 36 38
8 5 3 2 1 2 2 3 2 3 1 1 3 2 2 4 4 4 6 1 7 8 6 1 2 6 6 6 8 8 5 4 2 2 2 3 2 3 10 14 17 20 28 31 33
4 1 1 1 2 3 2 4 4 4 2 2 2 0 1 2 3 2 3 4 12 10 5 2 2 4 3 5 5 9 7 4 2 6 1 3 1 2 6 13 18 21 24 26 29
4 3 2 4 2 2 0 1 1 4 4 3 3 3 2 1 1 2 4 4 8 7 4 4 3 4 4 2 3 4 10 9 4 2 3 3 3 7 16 15 19 19 22 23 25
3 1 2 3 3 5 5 3 3 1 3 2 2 4 2 1 2 4 3 1 3 6 2 2 1 3 4 6 1 3 7 12 5 2 6 1 10 13 14 13 19 21 20 24 28
5 2 3 2 1 3 3 6 4 4 2 4 2 5 5 2 2 3 4 4 3 6 1 2 2 1 5 3 2 2 1 5 5 4 2 7 10 9 8 8 15 19 22 25 29
5 4 4 2 4 6 2 5 7 4 6 3 3 4 4 5 5 6 1 1 2 6 5 1 2 3 4 5 4 5 4 2 4 5 4 2 2 10 11 13 19 19 22 26 26
17 7 4 3 3 3 3 5 6 10 3 4 6 5 2 7 7 7 6 4 3 1 3 4 3 3 4 4 3 4 2 2 0 1 3 5 4 9 10 15 20 22 21 23 23
Wind_Direction
357 360 358 355 352 350 350 348 345 341 341 340 337 341 340 3 58 51 27 351 335 327 333 333 337 325 317 273 248 259 253 244 251 257 272 308 317 230 241 249 265 281 284 289 287
353 356 355 352 350 348 348 345 344 342 338 337 338 344 350 82 94 54 0 341 334 328 339 336 331 331 317 276 251 220 239 248 266 293 316 301 311 315 312 272 259 259 266 276 281
349 353 351 348 348 345 345 345 343 340 337 337 348 353 35 107 119 14 332 332 333 324 327 324 321 324 305 288 261 243 251 287 312 324 327 321 310 302 303 278 276 273 278 276 283
345 349 345 344 348 343 345 345 343 339 340 345 353 26 83 65 16 316 328 332 343 351 331 328 325 313 293 296 290 282 282 288 297 311 317 305 308 296 287 284 288 290 286 285 281
339 343 341 344 346 343 344 345 341 342 344 354 9 31 124 88 42 332 336 352 2 332 323 319 309 306 280 314 312 283 277 284 305 310 306 299 285 281 277 280 278 277 276 273 274
335 338 339 342 344 343 343 346 342 346 356 8 3 101 94 118 344 335 335 340 328 319 311 301 287 296 288 272 268 300 301 297 292 286 284 278 276 270 272 281 280 276 275 277 273
331 334 337 340 344 343 345 345 348 352 11 21 48 113 73 72 2 330 349 332 320 299 301 298 279 269 298 306 290 303 288 286 277 266 249 278 287 270 271 277 263 275 279 277 276
327 332 335 339 344 344 347 346 353 12 32 29 76 69 61 349 352 341 347 337 334 324 313 311 284 267 265 274 291 272 265 276 303 182 276 318 288 282 293 344 331 317 308 300 295
325 331 333 338 344 345 349 350 8 10 80 64 32 24 70 340 335 357 337 341 328 341 310 289 308 270 307 275 299 16 323 312 308 317 320 301 295 273 300 306 293 291 289 283 282
323 330 331 337 343 345 352 356 25 41 83 31 27 356 38 340 345 358 345 356 339 333 276 246 279 267 217 335 312 311 304 301 301 311 297 291 286 269 275 347 13 10 358 352 350
321 329 330 336 342 347 357 18 360 38 59 74 19 294 315 343 8 349 358 17 3 331 353 317 297 0 331 321 299 293 307 307 304 302 2 326 322 311 25 31 27 9 355 346 335
318 326 331 336 340 347 1 21 342 245 115 42 30 350 320 0 338 359 8 31 356 11 341 56 30 351 318 295 314 321 313 305 302 335 319 305 305 300 348 23 10 7 355 340 329
314 323 331 336 339 344 4 4 354 148 253 50 347 348 1 1 18 7 7 349 342 355 348 346 334 331 335 334 327 320 302 315 312 317 288 251 9 53 36 21 11 6 351 339 327
311 321 328 339 342 343 347 349 43 143 96 348 13 355 351 325 162 357 5 18 16 337 344 290 328 346 340 317 340 315 336 310 301 319 296 37 141 33 12 3 6 358 347 338 329
305 316 327 336 333 339 338 344 127 105 338 351 30 26 2 56 330 345 10 357 2 323 14 317 319 332 320 336 331 309 313 301 289 261 256 122 138 9 20 359 352 348 341 338 339
298 311 322 330 331 334 340 19 100 58 320 54 60 11 2 31 15 344 3 19 340 292 278 281 287 350 352 332 320 335 314 298 202 125 261 41 159 31 15 355 341 343 342 341 346
294 305 316 322 313 330 337 62 38 80 332 338 337 350 320 349 335 348 347 42 32 354 10 317 78 14 9 334 360 345 353 356 20 29 44 14 63 65 16 6 346 339 334 343 355
288 302 308 313 310 333 353 250 68 323 278 60 348 313 38 6 344 332 353 4 46 12 295 353 343 26 342 47 330 346 37 55 346 346 321 40 20 122 35 6 354 347 348 358 7
290 299 304 318 318 331 69 54 171 213 286 3 334 335 1 23 357 330 76 5 30 51 42 347 293 346 47 21 18 323 29 290 274 211 266 84 25 208 353 354 359 360 4 4 2
290 305 290 268 323 349 73 129 120 59 168 57 58 55 319 336 8 359 9 36 354 34 97 353 295 314 96 7 24 10 337 4 326 17 338 74 88 282 342 340 351 358 1 357 3
293 299 260 290 353 77 112 128 139 132 191 90 113 282 263 332 329 331 334 88 17 3 324 74 180 301 39 31 27 5 17 322 237 92 259 308 259 26 334 344 347 349 357 358 3
255 293 230 297 52 46 98 142 125 146 210 128 121 234 235 67 289 299 316 341 9 355 329 79 285 288 212 200 73 85 351 330 45 321 239 211 278 77 24 2 349 359 358 360 14
234 252 224 187 154 119 143 62 141 157 175 170 148 133 53 205 354 265 315 35 6 24 11 328 335 315 336 269 101 35 358 341 287 276 295 325 36 35 24 3 359 3 3 11 19
246 309 199 178 148 137 148 167 145 183 135 138 100 128 132 235 209 291 291 317 11 13 352 250 304 145 187 222 210 23 342 354 357 58 318 348 295 354 2 2 352 0 10 24 36
216 242 186 190 241 128 118 148 141 172 229 167 191 200 190 178 185 236 250 290 139 352 108 49 247 139 276 237 225 130 352 14 11 344 58 310 316 9 1 1 6 1 19 35 42
204 173 155 120 134 127 175 216 163 157 152 204 178 177 173 194 204 196 130 20 12 332 349 45 290 128 270 240 164 313 73 73 40 343 306 301 301 359 3 26 34 19 28 25 42
209 214 180 160 135 128 209 177 191 144 193 138 175 145 202 244 254 240 242 254 245 122 325 323 338 5 292 181 148 5 316 91 341 270 290 24 306 355 354 21 27 24 36 41 49